Location: Acts Church of Fort Worth
(32.6786°N, 97.2668°W)
Time: 23:13:28
(UTC+00:00)

IRAS Rocket - Pass Details

Date: 18 January 2026
Orbit: 846 x 875 km, 100.1° (Epoch: 13 February)

Event Time Altitude Azimuth Distance (km) Brightness Sun altitude
Rises 01:25:36 0° 158° (SSE) 3,397 7.2 -20.3°
Reaches altitude 10° 01:27:57 10° 156° (SSE) 2,468 6.5 -20.8°
Maximum altitude 01:33:23 71° 73° (ENE) 904 4.1 -21.9°
Drops below altitude 10° 01:38:53 10° 351° (N) 2,499 6.6 -23.1°
Sets 01:41:17 0° 349° (N) 3,444 7.4 -23.6°
